ECHOSTAR 23 (42070 NORAD) Tracking and Keplerian Element Data

This shows tracking and keplerian element data for the satellite.

Feedback or suggestion? Click here.




ElementValue
Catalog42070
NameECHOSTAR 23
Epoch Orbit492
Epoch Day195.3133567
Epoch Year2018
RAAN45.8036
Inclination0.0241
Eccentricity0.0002192
Argument of Perigee64.7331
Mean Anonmoly249.4869
Mean Motion1.00272387
Decay Rate-2.88E-06
L11 42070U 17014A 18195.31335670 -.00000288 00000-0 00000-0 0 9997
L22 42070 0.0241 45.8036 0002192 64.7331 249.4869 1.00272387 4923

Live tracking and technical data element details for ECHOSTAR 23 (NORAD 42070). ECHOSTAR 23 can be tracked NOW for your location showing map with azimuth and elevation plus other details from your city location.

Track the satellite on the map from your city or location and see movement details for azimuth, elevation, latitude, longitude, range, height, and movement on the map or in text.







IsCatalogInMostPopularTable: catalog: 42070, numindb: 101
Update: records affected: 1



GetName: 42070 ECHOSTAR 23

Hit Count: updated at: Sun, 15 Jul 2018 23:01:10 GMT